Rogers City, MI

8:05 AM EDT on April 30, 2017 (GMT -0400)
Presque Isle County

Weather History for KPZQ - January, 2014

Change the Weather History Date:

Saturday, January 18, 2014

  Actual Average (KAPN) Record (KAPN)
Temperature  
Mean Temperature 15 °F -  
Max Temperature 23 °F 27 °F 52 °F (1973)
Min Temperature 7 °F 10 °F -23 °F (1948)
Degree Days  
Heating Degree Days 50    
Moisture  
Dew Point 14 °F    
Average Humidity 85    
Maximum Humidity 95    
Minimum Humidity 66    
Precipitation  
Precipitation 0.00 in - - ()
Sea Level Pressure  
Sea Level Pressure 29.80 in    
Wind  
Wind Speed 5 mph (WSW)    
Max Wind Speed 10 mph    
Max Gust Speed -    
Visibility 10 miles    
Events Snow    
Averages and records for this station are not official NWS values.
T = Trace of Precipitation, MM = Missing Value Source: NWS Daily Summary

Daily Weather History Graph

Daily Weather History Graph

Search for Another Location

Airport or City:

Trip Planner

Search our weather history database for the weather conditions in past years. The results will help you decide how hot, cold, wet, or windy it might be!

Date:

Astronomy

Jan. 18, 2014 Rise Set
Actual Time 8:09 AM EST 5:22 PM EST
Civil Twilight 7:36 AM EST 5:55 PM EST
Nautical Twilight 7:00 AM EST 6:31 PM EST
Astronomical Twilight 6:24 AM EST 7:07 PM EST
Moon 8:13 PM EST (1/18) 8:59 AM EST (1/18)
Length of Visible Light 10h 18m
Length of Day
9h 13m
Waning Gibbous, 94% of the Moon is Illuminated
Jan 18
Waning Gibbous
Jan 24
Last Quarter
Jan 30
New
Feb 6
First Quarter
Feb 14
Full

Hourly Weather History & Observations

Time (EST) Temp. Windchill Dew Point Humidity Pressure Visibility Wind Dir Wind Speed Gust Speed Precip Events Conditions
12:15 AM 19.4 °F 11.5 °F 17.1 °F 91% 29.79 in 10.0 mi WSW 5.8 mph - N/A   Overcast
12:35 AM 19.4 °F 11.5 °F 17.1 °F 91% 29.78 in 10.0 mi West 5.8 mph - N/A   Overcast
12:55 AM 19.4 °F 12.8 °F 17.1 °F 91% 29.78 in 10.0 mi West 4.6 mph - N/A   Overcast
1:14 AM 19.0 °F 12.3 °F 16.7 °F 91% 29.78 in 10.0 mi West 4.6 mph - N/A   Overcast
1:35 AM 19.0 °F 11.1 °F 16.7 °F 91% 29.78 in 10.0 mi West 5.8 mph - N/A   Overcast
1:55 AM 18.9 °F 12.1 °F 16.5 °F 91% 29.78 in 10.0 mi West 4.6 mph - N/A   Overcast
2:14 AM 18.9 °F 10.8 °F 16.5 °F 91% 29.79 in 10.0 mi West 5.8 mph - N/A   Overcast
2:35 AM 18.9 °F 10.8 °F 16.3 °F 90% 29.79 in 10.0 mi West 5.8 mph - N/A   Overcast
2:55 AM 18.5 °F 9.3 °F 16.2 °F 91% 29.80 in 10.0 mi West 6.9 mph - N/A   Overcast
3:14 AM 18.5 °F 9.3 °F 15.8 °F 89% 29.80 in 10.0 mi West 6.9 mph - N/A   Overcast
3:35 AM 18.5 °F 8.4 °F 15.8 °F 89% 29.80 in 10.0 mi West 8.1 mph - N/A   Overcast
3:55 AM 18.0 °F 8.7 °F 15.4 °F 90% 29.80 in 10.0 mi West 6.9 mph - N/A   Overcast
4:15 AM 17.6 °F 9.3 °F 15.3 °F 91% 29.81 in 10.0 mi West 5.8 mph - N/A   Overcast
4:35 AM 17.6 °F 12.3 °F 14.9 °F 89% 29.81 in 10.0 mi West 3.5 mph - N/A   Overcast
4:54 AM 17.6 °F 10.7 °F 14.7 °F 88% 29.81 in 10.0 mi West 4.6 mph - N/A   Overcast
5:15 AM 17.1 °F 11.7 °F 14.4 °F 89% 29.81 in 10.0 mi West 3.5 mph - N/A   Overcast
5:35 AM 16.7 °F 9.6 °F 14.0 °F 89% 29.81 in 10.0 mi West 4.6 mph - N/A   Overcast
5:55 AM 15.8 °F 6.1 °F 13.3 °F 90% 29.80 in 10.0 mi WNW 6.9 mph - N/A   Mostly Cloudy
6:15 AM 14.5 °F 7.1 °F 12.0 °F 90% 29.81 in 10.0 mi WSW 4.6 mph - N/A   Scattered Clouds
6:35 AM 12.7 °F 6.7 °F 10.9 °F 92% 29.82 in 10.0 mi SW 3.5 mph - N/A   Scattered Clouds
6:55 AM 10.6 °F - 9.0 °F 93% 29.82 in 10.0 mi Calm Calm - N/A   Clear
7:15 AM 9.7 °F 3.2 °F 8.2 °F 94% 29.82 in 10.0 mi SW 3.5 mph - N/A   Clear
7:34 AM 7.9 °F 1.2 °F 5.9 °F 92% 29.81 in 10.0 mi SW 3.5 mph - N/A   Clear
7:55 AM 7.9 °F 1.2 °F 6.3 °F 93% 29.81 in 10.0 mi WSW 3.5 mph - N/A   Clear
8:15 AM 8.2 °F -0.3 °F 6.8 °F 94% 29.82 in 10.0 mi SW 4.6 mph - N/A   Clear
8:34 AM 8.6 °F 0.1 °F 7.2 °F 94% 29.82 in 10.0 mi SW 4.6 mph - N/A   Clear
8:55 AM 9.5 °F 1.2 °F 8.1 °F 94% 29.83 in 10.0 mi SW 4.6 mph - N/A   Clear
9:15 AM 10.8 °F 4.5 °F 9.1 °F 93% 29.84 in 10.0 mi SW 3.5 mph - N/A   Clear
9:34 AM 11.5 °F 5.3 °F 10.0 °F 94% 29.84 in 10.0 mi WSW 3.5 mph - N/A   Clear
9:55 AM 14.9 °F 9.2 °F 13.6 °F 95% 29.85 in 10.0 mi West 3.5 mph - N/A   Clear
10:15 AM 15.8 °F 8.6 °F 13.8 °F 92% 29.85 in 10.0 mi WSW 4.6 mph - N/A   Clear
10:35 AM 18.0 °F 12.7 °F 14.4 °F 86% 29.85 in 10.0 mi WNW 3.5 mph - N/A   Clear
10:55 AM 18.0 °F 12.7 °F 13.5 °F 83% 29.85 in 10.0 mi WNW 3.5 mph - N/A   Clear
11:14 AM 18.1 °F 10.0 °F 13.3 °F 81% 29.85 in 10.0 mi West 5.8 mph - N/A   Clear
11:35 AM 20.5 °F 12.8 °F 14.0 °F 76% 29.85 in 10.0 mi West 5.8 mph - N/A   Clear
11:54 AM 20.8 °F 11.2 °F 13.8 °F 74% 29.85 in 10.0 mi WSW 8.1 mph - N/A   Clear
12:15 PM 21.2 °F 12.6 °F 14.0 °F 74% 29.84 in 10.0 mi West 6.9 mph - N/A   Clear
12:35 PM 22.1 °F 14.7 °F 14.0 °F 71% 29.83 in 10.0 mi WNW 5.8 mph - N/A   Clear
12:54 PM 22.1 °F 14.7 °F 13.8 °F 70% 29.82 in 10.0 mi WSW 5.8 mph - N/A   Clear
1:15 PM 22.8 °F 14.5 °F 13.3 °F 67% 29.82 in 10.0 mi WNW 6.9 mph - N/A   Clear
1:34 PM 23.4 °F 12.8 °F 13.5 °F 66% 29.81 in 10.0 mi WNW 10.4 mph - N/A   Clear
1:55 PM 23.0 °F 13.1 °F 13.5 °F 67% 29.81 in 10.0 mi WNW 9.2 mph - N/A   Clear
2:15 PM 23.5 °F 16.4 °F 14.0 °F 67% 29.81 in 10.0 mi West 5.8 mph - N/A   Clear
2:34 PM 23.9 °F 15.8 °F 14.0 °F 66% 29.81 in 10.0 mi West 6.9 mph - N/A   Clear
2:55 PM 23.0 °F 15.8 °F 14.0 °F 68% 29.81 in 10.0 mi West 5.8 mph - N/A   Clear
3:15 PM 22.6 °F 16.5 °F 14.4 °F 71% 29.82 in 10.0 mi WNW 4.6 mph - N/A   Scattered Clouds
3:35 PM 23.0 °F 18.4 °F 14.9 °F 71% 29.82 in 10.0 mi WNW 3.5 mph - N/A   Mostly Cloudy
3:55 PM 22.6 °F - 14.7 °F 72% 29.82 in 10.0 mi Calm Calm - N/A   Mostly Cloudy
4:14 PM 23.4 °F - 15.4 °F 72% 29.82 in 10.0 mi Calm Calm - N/A   Overcast
4:35 PM 22.1 °F 17.4 °F 14.7 °F 73% 29.82 in 10.0 mi WSW 3.5 mph - N/A   Overcast
4:55 PM 22.6 °F - 15.4 °F 74% 29.82 in 10.0 mi Calm Calm - N/A   Overcast
5:14 PM 21.4 °F - 14.9 °F 76% 29.82 in 10.0 mi Calm Calm - N/A   Overcast
5:35 PM 20.3 °F - 15.1 °F 80% 29.82 in 10.0 mi Calm Calm - N/A   Overcast
5:54 PM 20.7 °F - 14.7 °F 78% 29.81 in 10.0 mi Calm Calm - N/A   Overcast
6:15 PM 20.3 °F - 15.1 °F 80% 29.81 in 10.0 mi Calm Calm - N/A   Overcast
6:35 PM 18.5 °F - 14.9 °F 86% 29.81 in 10.0 mi Calm Calm - N/A   Overcast
6:55 PM 18.5 °F 13.3 °F 14.9 °F 86% 29.81 in 10.0 mi WSW 3.5 mph - N/A Snow Light Snow
7:15 PM 19.2 °F 14.1 °F 15.1 °F 84% 29.80 in 7.0 mi South 3.5 mph - N/A Snow Light Snow
7:34 PM 18.1 °F - 14.7 °F 86% 29.80 in 7.0 mi Calm Calm - N/A Snow Light Snow
7:55 PM 18.3 °F - 14.9 °F 86% 29.79 in 7.0 mi Calm Calm - N/A Snow Light Snow
8:15 PM 16.9 °F - 14.2 °F 89% 29.78 in 10.0 mi Calm Calm - N/A   Overcast
8:34 PM 17.4 °F - 14.9 °F 90% 29.78 in 10.0 mi Calm Calm - N/A Snow Light Snow
8:55 PM 18.0 °F 12.7 °F 15.4 °F 90% 29.77 in 10.0 mi SSW 3.5 mph - N/A Snow Light Snow
9:14 PM 18.1 °F 12.9 °F 15.1 °F 88% 29.77 in 10.0 mi SSW 3.5 mph - N/A   Overcast
9:35 PM 18.3 °F 13.1 °F 15.4 °F 89% 29.76 in 10.0 mi SSW 3.5 mph - N/A   Overcast
9:55 PM 18.5 °F 11.7 °F 15.6 °F 89% 29.75 in 10.0 mi SW 4.6 mph - N/A   Overcast
10:15 PM 18.5 °F 13.3 °F 15.8 °F 89% 29.74 in 10.0 mi SSW 3.5 mph - N/A Snow Light Snow
10:34 PM 18.9 °F 12.1 °F 16.3 °F 90% 29.73 in 7.0 mi SSW 4.6 mph - N/A Snow Light Snow
10:55 PM 19.0 °F 11.1 °F 16.3 °F 89% 29.71 in 5.0 mi South 5.8 mph - N/A Snow Light Snow
11:15 PM 19.0 °F 12.3 °F 16.3 °F 89% 29.69 in 7.0 mi SSW 4.6 mph - N/A Snow Light Snow
11:34 PM 19.0 °F 11.1 °F 16.5 °F 90% 29.69 in 7.0 mi SSW 5.8 mph - N/A Snow Light Snow
11:55 PM 19.2 °F 12.5 °F 16.5 °F 89% 29.68 in 7.0 mi SSW 4.6 mph - N/A Snow Light Snow